When you browse on this site, cookies collect data to enhance your experience and personalize the content and advertising you see.
Visit our Privacy Policy to learn more. By continuing to use the site, you agree to this use of cookies and data.
  • In Portugal
  • List of Countries
  • For 7 days
  • Water Temperature
  • Satellite Maps
  • Weather Map
  • Weather Widgets
  • user-avatar
    Login

    Hourly Weather Zapora

    Today, 19 February, Tuesday

    Time Temperature Precipitation Wind Pressure Humidity
    00:00 +3°C° 0 mm 2 mps 749 mmHg 84%
    01:00 +3°C° 0 mm 2 mps 749 mmHg 85%
    02:00 +3°C° 0 mm 2 mps 748 mmHg 85%
    03:00 +2°C° 0 mm 2 mps 748 mmHg 86%
    04:00 +2°C° 0 mm 2 mps 747 mmHg 86%
    05:00 +1°C° 0 mm 3 mps 747 mmHg 86%
    06:00 +1°C° 0 mm 3 mps 746 mmHg 86%
    07:00 +1°C° 0 mm 3 mps 746 mmHg 86%
    08:00 +1°C° 0 mm 4 mps 746 mmHg 83%
    09:00 +4°C° 0 mm 4 mps 746 mmHg 79%
    10:00 +5°C° 0 mm 5 mps 746 mmHg 76%
    11:00 +6°C° 0 mm 5 mps 746 mmHg 74%
    12:00 +7°C° 0 mm 5 mps 745 mmHg 71%
    13:00 +8°C° 0 mm 5 mps 745 mmHg 69%
    14:00 +7°C° 0.2 mm 5 mps 745 mmHg 74%
    15:00 +6°C° 0.2 mm 5 mps 745 mmHg 79%
    16:00 +6°C° 0.2 mm 5 mps 745 mmHg 83%
    17:00 +6°C° 0.1 mm 5 mps 746 mmHg 82%
    18:00 +5°C° 0.1 mm 5 mps 746 mmHg 81%
    19:00 +5°C° 0.1 mm 5 mps 746 mmHg 79%
    20:00 +5°C° 0 mm 5 mps 746 mmHg 80%
    21:00 +5°C° 0 mm 5 mps 745 mmHg 81%
    22:00 +3°C° 0 mm 5 mps 745 mmHg 82%
    23:00 +3°C° 0.1 mm 5 mps 746 mmHg 82%

    Tomorrow, 20 February, Wednesday

    Time Temperature Precipitation Wind Pressure Humidity
    00:00 +3°C° 0.1 mm 5 mps 746 mmHg 81%
    01:00 +3°C° 0.1 mm 6 mps 746 mmHg 81%
    02:00 +3°C° 0.1 mm 6 mps 746 mmHg 81%
    03:00 +3°C° 0.1 mm 6 mps 746 mmHg 80%
    04:00 +3°C° 0.1 mm 6 mps 746 mmHg 79%
    05:00 +2°C° 0.1 mm 6 mps 746 mmHg 79%
    06:00 +2°C° 0.1 mm 6 mps 746 mmHg 78%
    07:00 +2°C° 0.1 mm 6 mps 747 mmHg 77%
    08:00 +2°C° 0.1 mm 6 mps 747 mmHg 77%
    09:00 +2°C° 0.1 mm 6 mps 748 mmHg 76%
    10:00 +3°C° 0.1 mm 6 mps 748 mmHg 75%
    11:00 +3°C° 0 mm 6 mps 749 mmHg 74%
    12:00 +3°C° 0 mm 6 mps 749 mmHg 73%
    13:00 +3°C° 0 mm 6 mps 750 mmHg 72%
    14:00 +3°C° 0 mm 6 mps 750 mmHg 71%
    15:00 +3°C° 0 mm 6 mps 750 mmHg 71%
    16:00 +3°C° 0 mm 5 mps 750 mmHg 71%
    17:00 +3°C° 0 mm 5 mps 751 mmHg 74%
    18:00 +4°C° 0 mm 4 mps 751 mmHg 78%
    19:00 +3°C° 0 mm 4 mps 751 mmHg 82%
    20:00 +3°C° 0 mm 3 mps 752 mmHg 86%
    21:00 +2°C° 0 mm 3 mps 752 mmHg 89%
    22:00 +3°C° 0 mm 2 mps 752 mmHg 92%
    23:00 +3°C° 0.2 mm 2 mps 752 mmHg 93%

    Day after tomorrow, 21 February, Thursday

    Time Temperature Precipitation Wind Pressure Humidity
    00:00 +3°C° 0.2 mm 2 mps 752 mmHg 94%
    01:00 +4°C° 0.2 mm 2 mps 752 mmHg 95%
    02:00 +4°C° 0.3 mm 2 mps 751 mmHg 95%
    03:00 +3°C° 0.3 mm 3 mps 751 mmHg 95%
    04:00 +3°C° 0.3 mm 3 mps 751 mmHg 95%
    05:00 +4°C° 0.2 mm 3 mps 751 mmHg 94%
    06:00 +4°C° 0.2 mm 3 mps 751 mmHg 94%
    07:00 +4°C° 0.2 mm 4 mps 750 mmHg 93%
    08:00 +4°C° 0.3 mm 4 mps 750 mmHg 92%
    09:00 +4°C° 0.3 mm 4 mps 750 mmHg 92%
    10:00 +5°C° 0.3 mm 4 mps 750 mmHg 91%
    11:00 +5°C° 0.4 mm 4 mps 750 mmHg 90%
    12:00 +5°C° 0.4 mm 4 mps 750 mmHg 89%
    13:00 +6°C° 0.4 mm 4 mps 750 mmHg 87%
    14:00 +6°C° 0.1 mm 4 mps 750 mmHg 88%
    15:00 +6°C° 0.1 mm 4 mps 750 mmHg 88%
    16:00 +6°C° 0.1 mm 4 mps 750 mmHg 89%
    17:00 +5°C° 0.1 mm 4 mps 751 mmHg 90%
    18:00 +5°C° 0.1 mm 4 mps 751 mmHg 91%
    19:00 +5°C° 0.1 mm 4 mps 752 mmHg 93%
    20:00 +4°C° 0.1 mm 3 mps 752 mmHg 92%
    21:00 +4°C° 0.1 mm 3 mps 753 mmHg 91%
    22:00 +3°C° 0.1 mm 3 mps 753 mmHg 91%
    23:00 +1°C° 0.3 mm 4 mps 754 mmHg 88%

    22 February, Friday

    Time Temperature Precipitation Wind Pressure Humidity
    00:00 0°C° 0.3 mm 4 mps 755 mmHg 86%
    01:00 -1°C° 0.3 mm 4 mps 756 mmHg 84%
    02:00 -1°C° 0 mm 4 mps 757 mmHg 82%
    03:00 -2°C° 0 mm 4 mps 758 mmHg 80%
    04:00 -2°C° 0 mm 4 mps 759 mmHg 78%
    05:00 -2°C° 0 mm 4 mps 760 mmHg 77%
    06:00 -2°C° 0 mm 4 mps 761 mmHg 75%
    07:00 -3°C° 0 mm 4 mps 762 mmHg 73%
    08:00 -2°C° 0 mm 4 mps 763 mmHg 69%
    09:00 -2°C° 0 mm 4 mps 764 mmHg 66%
    10:00 -2°C° 0 mm 4 mps 765 mmHg 62%
    11:00 -2°C° 0 mm 4 mps 765 mmHg 58%
    12:00 -1°C° 0 mm 4 mps 766 mmHg 54%
    13:00 -1°C° 0 mm 4 mps 766 mmHg 49%
    14:00 0°C° 0 mm 3 mps 767 mmHg 49%
    15:00 -1°C° 0 mm 3 mps 767 mmHg 48%
    16:00 -1°C° 0 mm 3 mps 767 mmHg 48%
    17:00 -2°C° 0 mm 2 mps 768 mmHg 52%
    18:00 -3°C° 0 mm 2 mps 768 mmHg 56%
    19:00 -1°C° 0 mm 1 mps 768 mmHg 60%
    20:00 -1°C° 0 mm 1 mps 769 mmHg 59%
    21:00 -2°C° 0 mm 1 mps 769 mmHg 59%
    22:00 -2°C° 0 mm 1 mps 769 mmHg 58%
    23:00 -1°C° 0 mm 1 mps 769 mmHg 57%

    23 February, Saturday

    Time Temperature Precipitation Wind Pressure Humidity
    00:00 -1°C° 0 mm 1 mps 769 mmHg 56%
    01:00 -1°C° 0 mm 1 mps 769 mmHg 54%
    02:00 -1°C° 0 mm 1 mps 769 mmHg 53%
    03:00 -3°C° 0 mm 2 mps 768 mmHg 52%
    04:00 -3°C° 0 mm 2 mps 768 mmHg 51%
    05:00 -3°C° 0 mm 2 mps 768 mmHg 51%
    06:00 -2°C° 0 mm 2 mps 768 mmHg 51%
    07:00 -2°C° 0 mm 2 mps 768 mmHg 51%
    08:00 -2°C° 0 mm 2 mps 767 mmHg 49%
    09:00 -1°C° 0 mm 3 mps 767 mmHg 46%
    10:00 0°C° 0 mm 3 mps 767 mmHg 44%
    11:00 +1°C° 0 mm 3 mps 767 mmHg 44%
    12:00 +1°C° 0 mm 3 mps 767 mmHg 45%
    13:00 +2°C° 0 mm 3 mps 766 mmHg 45%
    14:00 +2°C° 0 mm 3 mps 766 mmHg 50%
    15:00 +2°C° 0 mm 3 mps 765 mmHg 55%
    16:00 +2°C° 0 mm 3 mps 765 mmHg 60%
    17:00 +2°C° 0 mm 2 mps 765 mmHg 67%
    18:00 +1°C° 0 mm 2 mps 765 mmHg 75%
    19:00 +1°C° 0 mm 2 mps 764 mmHg 82%
    20:00 +1°C° 0 mm 2 mps 764 mmHg 86%
    21:00 -1°C° 0 mm 2 mps 764 mmHg 90%
    22:00 -1°C° 0 mm 2 mps 764 mmHg 94%
    23:00 +1°C° 0 mm 2 mps 764 mmHg 95%

    24 February, Sunday

    Time Temperature Precipitation Wind Pressure Humidity
    00:00 +1°C° 0 mm 2 mps 764 mmHg 96%
    01:00 +1°C° 0 mm 2 mps 765 mmHg 97%
    02:00 +2°C° 0 mm 1 mps 765 mmHg 97%
    03:00 +2°C° 0 mm 1 mps 765 mmHg 97%
    04:00 +2°C° 0 mm 1 mps 765 mmHg 97%
    05:00 +2°C° 0 mm 1 mps 765 mmHg 97%
    06:00 +2°C° 0 mm 1 mps 765 mmHg 97%
    07:00 +3°C° 0 mm 1 mps 765 mmHg 97%
    08:00 +3°C° 0 mm 1 mps 765 mmHg 95%
    09:00 +4°C° 0 mm 1 mps 765 mmHg 93%
    10:00 +5°C° 0 mm 1 mps 765 mmHg 91%
    11:00 +4°C° 0 mm 2 mps 765 mmHg 90%
    12:00 +4°C° 0 mm 2 mps 765 mmHg 89%
    13:00 +5°C° 0 mm 2 mps 765 mmHg 88%
    14:00 +5°C° 0 mm 2 mps 764 mmHg 90%
    15:00 +5°C° 0 mm 2 mps 764 mmHg 91%
    16:00 +4°C° 0 mm 2 mps 764 mmHg 92%
    17:00 +4°C° 0 mm 2 mps 763 mmHg 93%
    18:00 +4°C° 0 mm 2 mps 763 mmHg 94%
    19:00 +3°C° 0 mm 3 mps 763 mmHg 95%
    20:00 +2°C° 0 mm 3 mps 763 mmHg 95%
    21:00 +2°C° 0 mm 3 mps 762 mmHg 95%
    22:00 +2°C° 0 mm 3 mps 762 mmHg 94%
    23:00 +2°C° 0 mm 3 mps 762 mmHg 95%
    Show more